Weather History for Dayton, OH

Change the Weather History Date:

Thursday, March 28, 2013

  Actual Average Record
Temperature  
Mean Temperature 38 °F 45 °F  
Max Temperature 47 °F 55 °F 85 °F (1910)
Min Temperature 28 °F 35 °F 16 °F (1955)
Degree Days  
Heating Degree Days 27 20  
Month to date heating degree days 853 706  
Since 1 July heating degree days 4903 4981  
Cooling Degree Days 0 0  
Month to date cooling degree days 0 0  
Year to date cooling degree days 0 0  
Moisture  
Dew Point 25 °F    
Average Humidity 62    
Maximum Humidity 78    
Minimum Humidity 45    
Precipitation  
Precipitation 0.00 in 0.13 in 1.50 in (1924)
Month to date precipitation 3.15 2.96  
Year to date precipitation 7.54 7.91  
Snow  
Snow 0.00 in 0.00 in 1.00 in (1899)
Month to date snowfall 14.2 3.2  
Since 1 July snowfall 35.9 22.5  
Snow Depth 0.00 in    
Sea Level Pressure  
Sea Level Pressure 30.33 in    
Wind  
Wind Speed 8 mph (WNW)    
Max Wind Speed 16 mph    
Max Gust Speed 21 mph    
Visibility 10 miles    
Events      
T = Trace of Precipitation, MM = Missing Value Source: NWS Daily Summary

Daily Weather History Graph

Daily Weather History Graph

Search for Another Location

Airport:

Trip Planner

Search our weather history database for the weather conditions in past years. The results will help you decide how hot, cold, wet, or windy it might be!

Date:

Astronomy

Mar. 28, 2013 Rise Set
Actual Time 7:26 AM EDT 7:57 PM EDT
Civil Twilight 6:59 AM EDT 8:24 PM EDT
Nautical Twilight 6:27 AM EDT 8:56 PM EDT
Astronomical Twilight 5:55 AM EDT 9:29 PM EDT
Moon 9:48 PM EDT (3/28) 7:54 AM EDT (3/28)
Length of Visible Light 13h 24m
Length of Day
12h 30m
Full, 98% of the Moon is Illuminated
Mar 28
Full
Apr 3
Last Quarter
Apr 10
New
Apr 18
First Quarter
Apr 25
Full

Hourly Weather History & Observations

Time (EDT) Temp. Windchill Dew Point Humidity Pressure Visibility Wind Dir Wind Speed Gust Speed Precip Events Conditions
12:56 AM 33.1 °F 25.5 °F 24.1 °F 70% 30.30 in 10.0 mi West 9.2 mph - N/A   Scattered Clouds
1:56 AM 32.0 °F 24.8 °F 24.1 °F 73% 30.30 in 10.0 mi West 8.1 mph - N/A   Clear
2:56 AM 32.0 °F 24.2 °F 23.0 °F 69% 30.30 in 10.0 mi WNW 9.2 mph - N/A   Clear
3:56 AM 30.9 °F 23.5 °F 23.0 °F 72% 30.31 in 10.0 mi West 8.1 mph - N/A   Clear
4:56 AM 30.0 °F 23.2 °F 23.0 °F 75% 30.31 in 10.0 mi WNW 6.9 mph - N/A   Clear
5:56 AM 28.9 °F 21.9 °F 23.0 °F 78% 30.31 in 10.0 mi WNW 6.9 mph - N/A   Clear
6:56 AM 28.9 °F 21.9 °F 21.9 °F 75% 30.32 in 10.0 mi WNW 6.9 mph - N/A   Clear
7:56 AM 28.9 °F 21.1 °F 21.9 °F 75% 30.34 in 10.0 mi West 8.1 mph - N/A   Clear
8:56 AM 33.1 °F 26.1 °F 23.0 °F 66% 30.35 in 10.0 mi WNW 8.1 mph - N/A   Clear
9:56 AM 37.0 °F 29.8 °F 24.1 °F 59% 30.36 in 10.0 mi NW 10.4 mph - N/A   Clear
10:56 AM 39.0 °F 32.8 °F 25.0 °F 57% 30.37 in 10.0 mi NW 9.2 mph 18.4 mph N/A   Clear
11:56 AM 41.0 °F 33.9 °F 25.0 °F 53% 30.37 in 10.0 mi NW 12.7 mph - N/A   Partly Cloudy
12:56 PM 43.0 °F 36.8 °F 25.0 °F 49% 30.36 in 10.0 mi NNW 11.5 mph - N/A   Partly Cloudy
1:56 PM 45.0 °F 40.1 °F 28.0 °F 52% 30.35 in 10.0 mi West 9.2 mph - N/A   Partly Cloudy
2:56 PM 45.0 °F 39.7 °F 27.0 °F 49% 30.34 in 10.0 mi WSW 10.4 mph - N/A   Partly Cloudy
3:56 PM 46.0 °F 39.9 °F 28.0 °F 50% 30.33 in 10.0 mi West 13.8 mph - N/A   Partly Cloudy
4:56 PM 46.0 °F 40.6 °F 27.0 °F 47% 30.32 in 10.0 mi West 11.5 mph - N/A   Partly Cloudy
5:56 PM 46.0 °F 42.5 °F 27.0 °F 47% 30.31 in 10.0 mi West 6.9 mph - N/A   Scattered Clouds
6:56 PM 45.0 °F 40.1 °F 27.0 °F 49% 30.32 in 10.0 mi NW 9.2 mph - N/A   Scattered Clouds
7:56 PM 39.9 °F 35.8 °F 27.0 °F 60% 30.32 in 10.0 mi NNW 5.8 mph - N/A   Partly Cloudy
8:56 PM 39.9 °F 36.7 °F 26.1 °F 58% 30.32 in 10.0 mi NNW 4.6 mph - N/A   Partly Cloudy
9:56 PM 39.0 °F 35.7 °F 26.1 °F 60% 30.34 in 10.0 mi NW 4.6 mph - N/A   Partly Cloudy
10:56 PM 36.0 °F - 26.1 °F 67% 30.34 in 10.0 mi Calm Calm - N/A   Clear
11:56 PM 36.0 °F 33.3 °F 26.1 °F 67% 30.34 in 10.0 mi NW 3.5 mph - N/A   Clear